This demonstration page uses our WeatherBlox Daily Observations layout. Learn more.

Left ArrowRight Arrow

36.19886, -115.1175

Hourly Observations for October 5, 2020

Temp ( °F °C ) Dew Point ( °F °C ) Humidity (%) Winds ( mph kmh ) Pressure ( in mb ) Visibility ( mi km ) Precip ( " mm )
12:53 am 00:53 Clear 71 21.7 24 -4.4 17 17 NW 3 6 29.97 1015 10 16 0.00 0.00
1:53 am 01:53 Clear 71 21.7 23 -5 16 16 WNW 9 15 29.98 1015 10 16 0.00 0.00
2:53 am 02:53 Clear 69 20.6 23 -5 17 17 NW 5 7 29.97 1015 10 16 0.00 0.00
3:53 am 03:53 Clear 70 21.1 22 -5.6 16 16 Calm 29.98 1015 10 16 0.00 0.00
4:53 am 04:53 Clear 69 20.6 19 -7.2 15 15 WNW 5 7 29.99 1016 10 16 0.00 0.00
5:53 am 05:53 Clear 67 19.4 19 -7.2 16 16 N 3 6 30.01 1016 10 16 0.00 0.00
6:53 am 06:53 Sunny 69 20.6 19 -7.2 15 15 W 10 17 30.03 1017 10 16 0.00 0.00
7:53 am 07:53 Sunny 73 22.8 18 -7.8 12 12 W 6 9 30.05 1018 10 16 0.00 0.00
8:53 am 08:53 Sunny 77 25 19 -7.2 11 11 Calm 30.06 1018 10 16 0.00 0.00
9:53 am 09:53 Sunny 83 28.3 18 -7.8 9 9 Calm 30.07 1018 10 16 0.00 0.00
10:53 am 10:53 Sunny 85 29.4 21 -6.1 9 9 Calm 30.07 1018 10 16 0.00 0.00
11:53 am 11:53 Sunny 88 31.1 19 -7.2 8 8 SSE 6 9 30.05 1018 10 16 0.00 0.00
12:53 pm 12:53 Sunny 91 32.8 14 -10 6 6 Calm 30.03 1017 10 16 0.00 0.00
1:53 pm 13:53 Sunny 93 33.9 13 -10.6 5 5 ESE 5 7 30.00 1016 10 16 0.00 0.00
2:53 pm 14:53 Sunny 95 35 14 -10 5 5 NE 3 6 29.98 1015 10 16 0.00 0.00
3:53 pm 15:53 Sunny 96 35.6 15 -9.4 5 5 Calm 29.96 1015 10 16 0.00 0.00
4:53 pm 16:53 Sunny 98 36.7 14 -10 4 4 Calm 29.94 1014 10 16 0.00 0.00
5:53 pm 17:53 Sunny 95 35 14 -10 5 5 Calm 29.94 1014 10 16 0.00 0.00
6:53 pm 18:53 Clear 89 31.7 21 -6.1 8 8 N 3 6 29.95 1014 10 16 0.00 0.00
7:53 pm 19:53 Clear 83 28.3 25 -3.9 12 12 WNW 7 11 29.96 1015 10 16 0.00 0.00
8:53 pm 20:53 Clear 80 26.7 24 -4.4 13 13 WNW 8 13 29.97 1015 10 16 0.00 0.00
9:53 pm 21:53 Clear 77 25 21 -6.1 12 12 WNW 6 9 29.98 1015 10 16 0.00 0.00
10:53 pm 22:53 Clear 76 24.4 24 -4.4 14 14 W 6 9 29.98 1015 10 16 0.00 0.00
11:53 pm 23:53 Clear 75 23.9 21 -6.1 13 13 WSW 6 9 29.98 1015 10 16 0.00 0.00

Powered by AerisWeather